Myrtle Beach, SC

3:59 PM EDT on May 20, 2018 (GMT -0400)
Myrtle Beach International

Weather History for KMYR - October, 2011

Change the Weather History Date:

Wednesday, October 5, 2011

  Actual Average Record
Temperature  
Mean Temperature 63 °F -  
Max Temperature 75 °F 75 °F 93 °F (1951)
Min Temperature 51 °F 58 °F 48 °F (1996)
Degree Days  
Heating Degree Days 2    
Growing Degree Days 13 (Base 50)    
Moisture  
Dew Point 50 °F    
Average Humidity 76    
Maximum Humidity 88    
Minimum Humidity 47    
Precipitation  
Precipitation 0.00 in - - ()
Sea Level Pressure  
Sea Level Pressure 30.20 in    
Wind  
Wind Speed 2 mph (NE)    
Max Wind Speed 12 mph    
Max Gust Speed -    
Visibility 10 miles    
Events      
Averages and records for this station are not official NWS values.
T = Trace of Precipitation, MM = Missing Value Source: NWS Daily Summary

Daily Weather History Graph

Daily Weather History Graph

Search for Another Location

Airport or City:

Astronomy

Oct. 05, 2011 Rise Set
Actual Time 7:12 AM EDT 6:55 PM EDT
Civil Twilight 6:47 AM EDT 7:19 PM EDT
Nautical Twilight 6:19 AM EDT 7:48 PM EDT
Astronomical Twilight 5:50 AM EDT 8:17 PM EDT
Moon 3:19 PM EDT (10/5) 1:14 AM EDT (10/5)
Length of Visible Light 12h 32m
Length of Day
11h 42m
Waxing Gibbous, 66% of the Moon is Illuminated
Oct 5
Waxing Gibbous
Oct 11
Full
Oct 19
Last Quarter
Oct 26
New
Nov 2
First Quarter

Hourly Weather History & Observations

Time (EDT) Temp. Dew Point Humidity Pressure Visibility Wind Dir Wind Speed Gust Speed Precip Events Conditions
12:15 AM 53.6 °F 48.2 °F 82% 30.20 in 10.0 mi Calm Calm - N/A   Clear
12:35 AM 53.6 °F 48.2 °F 82% 30.20 in 10.0 mi Calm Calm - N/A   Clear
12:55 AM 55.4 °F 48.2 °F 77% 30.19 in 10.0 mi Calm Calm - N/A   Clear
1:15 AM 53.6 °F 48.2 °F 82% 30.19 in 10.0 mi Calm Calm - N/A   Clear
1:35 AM 53.6 °F 48.2 °F 82% 30.19 in 10.0 mi Calm Calm - N/A   Clear
1:55 AM 53.6 °F 48.2 °F 82% 30.19 in 10.0 mi Calm Calm - N/A   Clear
2:15 AM 53.6 °F 48.2 °F 82% 30.19 in 10.0 mi Calm Calm - N/A   Clear
2:35 AM 53.6 °F 48.2 °F 82% 30.19 in 10.0 mi Calm Calm - N/A   Clear
2:55 AM 53.6 °F 48.2 °F 82% 30.19 in 10.0 mi Calm Calm - N/A   Clear
3:15 AM 51.8 °F 46.4 °F 82% 30.19 in 10.0 mi Calm Calm - N/A   Clear
3:35 AM 53.6 °F 48.2 °F 82% 30.18 in 10.0 mi Calm Calm - N/A   Clear
3:55 AM 51.8 °F 46.4 °F 82% 30.19 in 10.0 mi Calm Calm - N/A   Clear
4:15 AM 51.8 °F 46.4 °F 82% 30.19 in 10.0 mi Calm Calm - N/A   Clear
4:35 AM 51.8 °F 46.4 °F 82% 30.19 in 10.0 mi Calm Calm - N/A   Clear
4:55 AM 51.8 °F 46.4 °F 82% 30.19 in 10.0 mi Calm Calm - N/A   Clear
5:15 AM 51.8 °F 46.4 °F 82% 30.19 in 10.0 mi Calm Calm - N/A   Clear
5:35 AM 51.8 °F 46.4 °F 82% 30.19 in 10.0 mi Calm Calm - N/A   Clear
5:50 AM 51.8 °F 46.4 °F 82% 30.19 in 10.0 mi Calm Calm - N/A   Clear
5:55 AM 51.8 °F 46.4 °F 82% 30.19 in 10.0 mi Calm Calm - N/A   Clear
6:50 AM 51.8 °F 46.4 °F 82% 30.22 in 10.0 mi Calm Calm - N/A   Clear
7:47 AM 53.6 °F 46.4 °F 77% 30.24 in 10.0 mi North 6.9 mph - N/A   Unknown
8:46 AM 57.2 °F 50.0 °F 77% 30.25 in 10.0 mi North 8.1 mph - N/A   Clear
9:45 AM 64.4 °F 51.8 °F 64% 30.26 in 10.0 mi North 8.1 mph - N/A   Clear
11:47 AM 71.6 °F 51.8 °F 50% 30.25 in 10.0 mi North 5.8 mph - N/A   Clear
12:45 PM 73.4 °F 51.8 °F 47% 30.23 in 10.0 mi North 11.5 mph - N/A   Clear
1:47 PM 75.2 °F 55.4 °F 50% 30.20 in 10.0 mi NE 9.2 mph - N/A   Clear
2:45 PM 73.4 °F 55.4 °F 53% 30.18 in 10.0 mi SSE 11.5 mph - N/A   Clear
3:45 PM 73.4 °F 55.4 °F 53% 30.17 in 10.0 mi SSE 11.5 mph - N/A   Clear
4:45 PM 73.4 °F 55.4 °F 53% 30.16 in 10.0 mi South 11.5 mph - N/A   Clear
5:50 PM 71.6 °F 55.4 °F 57% 30.17 in 10.0 mi South 9.2 mph - N/A   Clear
6:50 PM 69.8 °F 55.4 °F 60% 30.16 in 10.0 mi South 6.9 mph - N/A   Clear
7:50 PM 62.6 °F 55.4 °F 77% 30.17 in 10.0 mi Calm Calm - N/A   Clear
8:45 PM 60.8 °F 55.4 °F 82% 30.18 in 10.0 mi Calm Calm - N/A   Clear
9:50 PM 59.0 °F 55.4 °F 88% 30.20 in 10.0 mi Calm Calm - N/A   Clear
10:50 PM 57.2 °F 53.6 °F 88% 30.19 in 10.0 mi Calm Calm - N/A   Clear
11:15 PM 57.2 °F 53.6 °F 88% 30.20 in 10.0 mi Calm Calm - N/A   Clear
11:35 PM 57.2 °F 53.6 °F 88% 30.20 in 10.0 mi Calm Calm - N/A   Clear
11:55 PM 57.2 °F 53.6 °F 88% 30.20 in 10.0 mi Calm Calm - N/A   Clear